Humidity-temperature Sensor

Selected Measurement Type: Air Temperature

 
Air Temperature [°C]     6 entries per hour
Showing data from 6/11/2017 (00:00:00 Z) to 6/8/2017 (00:01:00 Z)
Previous Next [ Day | 3-Days | 7-Days ]
First Last
Prev [ Day | 3-Days | 7-Days ] Next
First Last

Start Time:     :
End Time:     :     
Time (in GMT) :00 :50 :40 :30 :20 :10
Previous Next [ Day | 3-Days | 7-Days ]
First Last
Prev [ Day | 3-Days | 7-Days ] Next
First Last


123 => good data
MM => data is determined as missing
-- => data not received/configured
Back to Top Back to Top
6/11/2017 00:00 to 23:10 26.59 26.56 26.59 26.69 26.53 26.39
6/10/2017 23:00 to 22:10 26.45 26.39 26.15 26.51 26.79 26.73
6/10/2017 22:00 to 21:10 26.64 26.58 26.67 26.90 26.82 26.86
6/10/2017 21:00 to 20:10 26.84 26.76 26.87 27.02 26.91 26.99
6/10/2017 20:00 to 19:10 26.94 26.82 27.02 26.86 26.86 26.93
6/10/2017 19:00 to 18:10 26.91 26.84 26.90 26.88 26.89 27.04
6/10/2017 18:00 to 17:10 -- -- -- -- -- --
6/10/2017 17:00 to 16:10 26.97 27.00 26.85 26.88 26.83 26.92
6/10/2017 16:00 to 15:10 26.88 26.94 26.88 26.80 26.90 26.98
6/10/2017 15:00 to 14:10 26.84 26.79 26.40 26.47 26.60 26.62
6/10/2017 14:00 to 13:10 26.74 26.84 26.79 26.59 26.75 26.61
6/10/2017 13:00 to 12:10 26.65 26.65 26.13 26.67 26.68 26.63
6/10/2017 12:00 to 11:10 26.58 26.63 26.66 26.72 26.75 26.60
6/10/2017 11:00 to 10:10 26.62 26.60 26.65 26.73 26.72 26.71
6/10/2017 10:00 to 9:10 26.76 26.70 26.81 26.80 26.82 26.72
6/10/2017 09:00 to 8:10 26.84 26.79 26.84 26.94 26.95 26.81
6/10/2017 08:00 to 7:10 26.86 26.46 26.22 26.93 26.80 26.34
6/10/2017 07:00 to 6:10 25.96 26.00 25.98 25.80 25.49 25.78
6/10/2017 06:00 to 5:10 25.86 25.66 25.99 25.84 26.13 26.20
6/10/2017 05:00 to 4:10 26.22 26.50 26.97 26.96 26.86 26.83
6/10/2017 04:00 to 3:10 26.86 26.82 26.88 26.85 26.89 26.76
6/10/2017 03:00 to 2:10 26.87 26.81 26.80 26.88 26.82 26.89
6/10/2017 02:00 to 1:10 -- -- -- -- -- --
6/10/2017 01:00 to 0:10 26.71 26.86 26.90 26.89 26.80 26.80
6/10/2017 00:00 to 23:10 -- -- -- -- -- --
6/9/2017 23:00 to 22:10 26.89 26.84 26.92 26.83 26.78 26.83
6/9/2017 22:00 to 21:10 26.94 26.83 26.90 27.04 26.92 26.95
6/9/2017 21:00 to 20:10 26.88 26.84 26.98 26.90 26.91 26.94
6/9/2017 20:00 to 19:10 26.79 26.87 27.02 26.96 26.90 26.90
6/9/2017 19:00 to 18:10 26.98 26.98 26.86 26.96 26.92 26.89
6/9/2017 18:00 to 17:10 26.99 26.99 26.96 26.87 27.00 27.10
6/9/2017 17:00 to 16:10 27.03 26.89 26.97 26.94 26.94 26.99
6/9/2017 16:00 to 15:10 26.90 27.00 26.95 27.01 26.89 27.07
6/9/2017 15:00 to 14:10 -- -- -- -- -- --
6/9/2017 14:00 to 13:10 26.69 26.69 26.65 26.58 26.64 26.64
6/9/2017 13:00 to 12:10 26.55 26.59 26.67 26.59 26.64 26.44
6/9/2017 12:00 to 11:10 26.49 26.57 26.64 26.51 26.63 26.50
6/9/2017 11:00 to 10:10 26.61 26.56 26.52 26.49 26.37 26.62
6/9/2017 10:00 to 9:10 26.54 26.57 26.56 26.48 26.55 26.49
6/9/2017 09:00 to 8:10 26.60 26.56 26.60 26.72 26.60 26.56
6/9/2017 08:00 to 7:10 26.59 26.61 26.63 26.66 26.76 26.76
6/9/2017 07:00 to 6:10 26.68 26.76 26.80 26.74 26.79 26.79
6/9/2017 06:00 to 5:10 26.95 26.80 26.88 26.86 26.81 26.84
6/9/2017 05:00 to 4:10 26.81 26.63 26.77 26.91 26.81 26.78
6/9/2017 04:00 to 3:10 26.97 26.81 26.83 26.88 26.81 26.83
6/9/2017 03:00 to 2:10 27.00 26.82 26.90 26.88 26.98 26.99
6/9/2017 02:00 to 1:10 26.89 26.91 26.84 26.88 26.83 26.89
6/9/2017 01:00 to 0:10 -- -- -- -- -- --
6/9/2017 00:00 to 23:10 26.96 26.87 26.88 26.82 26.79 27.01
6/8/2017 23:00 to 22:10 26.82 26.95 26.95 26.94 26.90 26.93
6/8/2017 22:00 to 21:10 27.07 27.02 26.97 27.00 27.08 27.01
6/8/2017 21:00 to 20:10 27.14 27.08 27.14 27.09 27.08 27.07
6/8/2017 20:00 to 19:10 27.08 27.07 27.03 27.03 27.07 27.19
6/8/2017 19:00 to 18:10 27.01 27.12 27.21 27.14 27.09 27.06
6/8/2017 18:00 to 17:10 27.02 26.99 27.07 27.06 27.07 27.05
6/8/2017 17:00 to 16:10 26.98 27.07 27.04 27.02 26.96 27.14
6/8/2017 16:00 to 15:10 26.98 27.04 26.99 26.90 26.99 27.02
6/8/2017 15:00 to 14:10 27.01 27.01 26.98 26.92 26.98 26.87
6/8/2017 14:00 to 13:10 26.89 26.88 26.94 26.88 26.83 26.94
6/8/2017 13:00 to 12:10 26.81 26.91 26.85 26.91 26.79 26.82
6/8/2017 12:00 to 11:10 26.83 26.87 26.74 26.73 26.67 26.64
6/8/2017 11:00 to 10:10 26.72 26.76 26.81 26.67 26.47 26.49
6/8/2017 10:00 to 9:10 26.83 26.79 26.85 26.95 26.93 26.85
6/8/2017 09:00 to 8:10 26.83 26.83 26.90 26.88 26.84 26.83
6/8/2017 08:00 to 7:10 26.87 26.90 26.87 27.04 26.99 26.95
6/8/2017 07:00 to 6:10 26.99 27.05 27.01 27.03 27.05 27.05
6/8/2017 06:00 to 5:10 -- -- -- -- -- --
6/8/2017 05:00 to 4:10 27.18 27.09 27.12 27.12 27.16 27.19
6/8/2017 04:00 to 3:10 27.12 27.12 27.15 27.12 27.26 27.15
6/8/2017 03:00 to 2:10 27.10 27.14 27.21 27.12 27.08 27.16
6/8/2017 02:00 to 1:10 27.16 27.12 27.17 27.16 27.07 27.14
6/8/2017 01:00 to 0:10 27.16 27.06 27.16 27.11 27.05 27.11